Regional Weather Roundup
Issued by NWS Midland/Odessa, TX

Skip options and go directly to product.
Home | Oldest Version | Previous Version | Current Version | All | Text Only | Save Text | Print | Product List | Glossary On

Skip product version selection by date and time.   
805
ASUS44 KMAF 261102
RWRMAF
MIDLAND AREA WEATHER ROUNDUP
NATIONAL WEATHER SERVICE MIDLAND TX
600 AM CDT SAT JUL 26 2014

...IN SOUTHWEST TEXAS AND SOUTHEAST NEW MEXICO...

CITY           SKY/WX    TMP DP  RH WIND       PRES   REMARKS
ALPINE         CLEAR     73  56  56 SW8       30.18R
ANDREWS        FAIR      75  61  61 S7        30.05R
ARTESIA        CLEAR     73  55  53 S8        30.04R
BIG SPRING     CLEAR     79  63  57 S9        30.04S
CARLSBAD       CLEAR     75  54  47 S7        30.02R
DRYDEN           N/A     79  65  62 E6        29.99S
FORT STOCKTON  CLEAR     74  61  63 S9        30.03R
GUAD PASS      CLEAR     72  53  51 W9        30.19S
HOBBS          NOT AVBL
MARFA          CLEAR     63  55  77 NE7       30.18S
MIDLAND AIRPK  CLEAR     78  62  57 S8        30.03S
MIDLAND INTL   CLEAR     77  62  59 S10       30.02S
ODESSA         CLEAR     78  62  57 S10       30.03S
PECOS          CLEAR     73  60  64 E6        29.98S
PRESIDIO       FAIR      80  57  45 CALM      30.01S
SEMINOLE       CLEAR     74  60  62 S7        30.07R
SNYDER         CLEAR     75  62  63 S8        30.02R
WINK           CLEAR     75  62  64 SE7       30.00S
$$
...OTHER STATIONS IN TEXAS...

CITY           SKY/WX    TMP DP  RH WIND       PRES   REMARKS
ABILENE        CLEAR     78  64  61 S10       29.99R
AMARILLO       CLEAR     74  54  49 SW15      30.04R
AUSTIN         CLEAR     73  72  96 CALM      30.00R
BROWNSVILLE    CLEAR     78  76  93 SE6       29.97S
CORPUS CHRISTI PTCLDY    76  74  93 CALM      29.97R
DALLAS FTW     CLEAR     80  70  71 S9        29.97R
DEL RIO        CLEAR     79  69  71 E8        29.96R
EL PASO        CLEAR     77  42  28 SE8       30.04R
HOUSTON INT    PTCLDY    78  75  90 S5        30.01R
LUBBOCK        CLEAR     75  57  53 SW10      30.03S
SAN ANGELO     CLEAR     76  65  68 S12       30.00S
SAN ANTONIO    CLEAR     78  73  84 S8        30.00S
WACO           CLEAR     77  71  82 S12       29.98S
WICHITA FALLS  NOT AVBL
$$
...OTHER LOCATIONS IN NEW MEXICO...

CITY           SKY/WX    TMP DP  RH WIND       PRES   REMARKS
ALAMAGORDO     CLEAR     72  41  33 CALM      30.07R
ALBUQUERQUE    PTCLDY    74  42  31 SE3       30.14R
CANNON AFB     PTCLDY    68  55  62 SW5       30.10R
CLOVIS         PTCLDY    70  54  56 SW9       30.11R
HOLLOMAN AFB   CLEAR     77  43  29 S7        30.05R
ROSWELL        CLEAR     73  53  49 S8        30.03S
RUIDOSO        CLEAR     66  43  42 W8        30.27S
SANTA FE       CLEAR     64  48  56 N3        30.22R
TRUTH OR CONSE CLEAR     80  46  30 W9        30.09S
TUCUMCARI      PTCLDY    78  47  33 SW17G23   30.02R
$$

USA.gov is the U.S. government's official web portal to all federal, state and local government web resources and services.